AirNav   Bose A20 Aviation Headset
 
 569 users online  

KGDW Gladwin Zettel Memorial Airport
Gladwin, Michigan, USA

GOING TO GLADWIN?


FAA INFORMATION EFFECTIVE 11 OCTOBER 2018

Location

FAA Identifier: GDW
Lat/Long: 43-58-14.1216N / 084-28-30.0720W
43-58.235360N / 084-28.501200W
43.9705893 / -84.4750200
(estimated)
Elevation: 774 ft. / 235.9 m (surveyed)
Variation: 04W (1980)
From city: 1 mile SE of GLADWIN, MI
Time zone: UTC -4 (UTC -5 during Standard Time)
Zip code: 48624

Airport Operations

Airport use: Open to the public
Activation date: 04/1940
Control tower: no
ARTCC: CLEVELAND CENTER
FSS: LANSING FLIGHT SERVICE STATION
NOTAMs facility: LAN (NOTAM-D service available)
Attendance: 0900-1700
UNATTENDED MAJ HOL. FOR ATTENDANT & AFT HOURS CALL 989-578-2174, MGR CELL.
Pattern altitude: 1774 ft. MSL
Wind indicator: lighted
Segmented circle: yes
Lights: ACTVT MIRL RY 09/27; PAPI & REIL RYS 09 & 27 - CTAF.
Beacon: white-green (lighted land airport)
Operates sunset to sunrise.

Airport Communications

CTAF/UNICOM: 122.8
SAGINAW APPROACH: 126.45 [0545-2330]
SAGINAW DEPARTURE: 126.45 [0545-2330]
  • APCH/DEP SERVICE PROVIDED BY CLEVELAND ARTCC (ZOB) ON FREQS 127.7/307.8 (SAGINAW RCAG) OR CALL CLEVELAND ARTCC (ZOB) 440-774-0386 WHEN SAGINAW (MBS) APCH CTL CLSD.

Nearby radio navigation aids

VOR radial/distance  VOR name  Freq  Var
MOPr034/23.8MOUNT PLEASANT VOR/DME110.6005W
MBSr330/31.5SAGINAW VOR/DME112.9003W

Airport Services

Fuel available: 100LL JET-A
SELF SVC FUEL AVBL 24 HRS WITH CREDIT CARD.
Parking: tiedowns

Runway Information

Runway 9/27

Dimensions: 4699 x 75 ft. / 1432 x 23 m
Surface: asphalt, in good condition
Weight bearing capacity: 
Single wheel: 44.0
Double wheel: 60.0
Double tandem: 90.0
Runway edge lights: medium intensity
RUNWAY 9  RUNWAY 27
Latitude: 43-58.304538N43-58.335603N
Longitude: 084-28.971977W084-27.901978W
Elevation: 771.2 ft.772.6 ft.
Gradient: 0.1%0.1%
Traffic pattern: leftleft
Runway heading: 092 magnetic, 088 true272 magnetic, 268 true
Markings: nonprecision, in good conditionnonprecision, in good condition
Visual slope indicator: 2-light PAPI on left (3.00 degrees glide path)2-light PAPI on left (3.00 degrees glide path)
Runway end identifier lights: yesyes
Touchdown point: yes, no lightsyes, no lights
Obstructions: 100 ft. trees, 2200 ft. from runway, 20:1 slope to clear50 ft. brush, 1400 ft. from runway, 24:1 slope to clear

Runway 15/33

Dimensions: 2580 x 150 ft. / 786 x 46 m
Surface: turf, in fair condition
Runway edge markings: 15/33 MKD WITH 3 FT YELLOW CONES
Operational restrictions: CLSD WHEN SNOW COVERED EXCP FOR SKI EQUIPPED ACFT.
RUNWAY 15  RUNWAY 33
Latitude: 43-58.276012N43-57.886137N
Longitude: 084-28.734625W084-28.501718W
Elevation: 772.6 ft.764.2 ft.
Traffic pattern: leftleft
Runway heading: 161 magnetic, 157 true341 magnetic, 337 true
Touchdown point: yes, no lightsyes, no lights

Airport Ownership and Management from official FAA records

Ownership: Publicly-owned
Owner: CITY/COUNTY OF GLADWIN
1000 W. CEDAR AVE
GLADWIN, MI 48624
Phone 989-426-9231
CITY HALL.
Manager: MICHAEL HARGRAVE
735 STATE ST
GLADWIN, MI 48624
Phone 989-426-4201

Airport Operational Statistics

Aircraft based on the field: 15
Single engine airplanes: 11
Multi engine airplanes: 2
Ultralights: 2
    
Aircraft operations: avg 85/week *
50% transient general aviation
50% local general aviation
* for 12-month period ending 31 December 2016

Additional Remarks

DEER & BIRDS ON & INVOF ARPT.
RDO CTL ACFT OPER NEAR WEST SIDE OF RY 15/33.
TERM. BLDG ACCESS,5-3-2-1-*.
APCH/DEP SERVICE PROVIDED BY CLEVELAND ARTCC (ZOB) ON FREQS 127.7/307.8 (SAGINAW RCAG) OR CALL CLEVELAND ARTCC (ZOB) 440-774-0386 WHEN SAGINAW (MBS) APCH CTL CLSD.

Instrument Procedures

NOTE: All procedures below are presented as PDF files. If you need a reader for these files, you should download the free Adobe Reader.

NOT FOR NAVIGATION. Please procure official charts for flight.
FAA instrument procedures published for use from 11 October 2018 at 0901Z to 8 November 2018 at 0900Z.

 
IAPs - Instrument Approach Procedures
RNAV (GPS) RWY 09   download (193KB)
RNAV (GPS) RWY 27   download (217KB)
NOTE: Special Take-Off Minimums/Departure Procedures apply   download (122KB)

Other nearby airports with instrument procedures:

48D - Clare Municipal Airport (14 nm SW)
KIKW - Jack Barstow Airport (21 nm SE)
Y31 - West Branch Community Airport (21 nm NE)
KMOP - Mount Pleasant Municipal Airport (24 nm SW)
KHTL - Roscommon County - Blodgett Memorial Airport (25 nm N)
 
Loc | Ops | Rwys | IFR | FBO | Links
Com | Nav | Svcs | Stats | Notes


 
Area around KGDW (Gladwin Zettel Memorial Airport)
 
Road maps at: MapQuest Bing Google
 
Aerial photo
WARNING: Photo may not be current or correct
Aerial photo of KGDW (Gladwin Zettel Memorial Airport)
Photo by Carol Batten

Do you have a better or more recent aerial photo of Gladwin Zettel Memorial Airport that you would like to share? If so, please send us your photo.

 
Sectional chart

 
Airport distance calculator
Flying to Gladwin Zettel Memorial Airport? Find the distance to fly.

From to KGDW

Sunrise and sunset
Times for 20-Oct-2018
 Local
(UTC-4)
 Zulu
(UTC)
Morning civil twilight07:3011:30
Sunrise08:0012:00
Sunset18:4622:46
Evening civil twilight19:1523:15

Current date and time
Zulu (UTC)  20-Oct-2018 05:40:40
Local (UTC-4)  20-Oct-2018 01:40:40
 
METAR
KIKW 
21nm SE 
200515Z AUTO 26006KT 10SM CLR 10/08 A2966 RMK AO2 T00990083
KY31 
21nm NE 
200515Z AUTO 28006KT 10SM CLR 08/06 A2961 RMK AO2 T00800058
KMOP 
24nm SW 
200515Z AUTO 27007KT 10SM CLR 10/07 A2967 RMK AO2 T00970069
KHTL 
24nm N 
200453Z AUTO 29010KT 10SM CLR 08/06 A2963 RMK AO2 SLP039 T00830056 401170067
KMBS 
31nm SE 
200453Z AUTO 27010KT 10SM CLR 10/09 A2967 RMK AO2 RAE06 SLP050 P0000 T01000089 401220056
KAMN 
40nm S 
200518Z AUTO 27006KT 10SM CLR 10/09 A2970 RMK AO2 T00960086
TAF
KMBS 
31nm SE 
200402Z 2004/2024 24011KT P6SM -RA SCT009 OVC015 FM200500 23012KT P6SM SCT015 FM200600 27012KT P6SM SCT020 FM201000 28010KT P6SM SCT040 FM201500 28012G22KT P6SM BKN050 FM201700 31015G23KT P6SM -RA OVC025 FM202200 32018G28KT P6SM BKN025
NOTAMs
Click for the latest NOTAMs
NOTAMs are issued by the DoD/FAA and will open in a separate window not controlled by AirNav.

 

 
 

FBO, Fuel Providers, and Aircraft Ground Support

  
 Business Name 
 
 Contact 
 
 Services / Description 
 
Fuel Prices
 
Comments
  
Gladwin Zettel Memorial Airport 989-426-4201 Aviation fuel

More info about Gladwin Zettel Memorial Airport
Avfuel
100LL Jet A
AS $4.31 --- 
FS $4.31 $6.00 
 Updated 05-Oct-2018
 
   3 read write
AS=Assisted/Self Service
FS=Full service
Update Fuel Prices
 

Would you like to see your business listed on this page?

 If your business provides an interesting product or service to pilots, flight crews, aircraft, or users of the Gladwin Zettel Memorial Airport, you should consider listing it here.  To start the listing process, click on the button below
 
Add a business
 

Other Pages about Gladwin Zettel Memorial Airport

Page from the Michigan Airport Directory (PDF)
 
Update a link
 
Copyright © AirNav, LLC. All rights reserved. Privacy Policy  Contact